Presure
140 185 131 188 184 142 105 127 164 121 122 143 185 169 155 159 127 104 126 138 147 148 113 141 212 135 131 133 252 159 153 132 295 244 130 105 134 170 161 119 155 147 149 141 178
182 169 144 181 186 104 167 153 169 201 167 112 174 183 124 138 146 132 142 129 137 139 133 147 209 170 139 144 160 146 247 300 265 229 115 135 163 87 179 151 150 162 136 138 142
184 146 178 146 176 143 177 141 184 167 186 157 152 112 173 120 130 139 123 141 342 361 165 457 278 143 122 430 420 182 426 333 147 371 337 114 288 122 225 111 134 144 153 139 132
144 150 173 174 122 130 111 159 195 198 135 184 138 183 147 138 136 126 123 162 138 189 177 240 439 433 431 425 414 356 415 142 413 394 375 259 255 367 111 174 263 147 125 131 116
123 191 168 181 173 147 189 210 199 179 135 179 132 166 123 127 127 145 124 226 346 461 443 143 428 421 421 416 410 411 252 391 353 390 345 227 332 159 193 297 118 134 141 156 122
170 134 167 161 169 168 165 183 131 182 166 165 176 116 147 142 134 126 361 477 455 442 431 419 418 410 328 415 402 411 407 394 399 381 382 258 304 316 258 331 119 118 128 144 135
149 169 165 159 193 172 178 184 191 171 151 191 125 142 115 176 296 143 144 433 442 425 416 405 406 402 408 410 399 180 385 392 396 380 352 328 202 148 321 137 112 165 164 108 110
167 186 174 167 159 139 183 180 149 173 187 178 135 116 144 154 299 124 199 449 395 404 405 395 381 392 396 408 268 146 186 362 379 370 349 332 181 115 285 243 272 236 190 157 104
148 154 188 180 174 172 172 183 137 187 177 126 158 114 126 197 333 295 451 431 418 398 383 389 374 380 387 409 391 389 391 340 340 365 344 327 301 289 269 317 328 163 218 190 195
160 126 169 164 164 177 170 188 158 169 119 140 144 131 129 245 285 415 441 420 400 392 378 368 368 369 380 412 392 207 383 384 367 358 339 334 321 185 271 195 237 320 230 236 131
141 161 152 194 173 184 173 151 178 167 128 132 139 150 163 149 407 317 429 416 394 379 367 361 356 358 376 403 399 385 380 381 362 349 332 321 314 129 280 312 133 247 240 185 146
132 136 182 167 200 163 165 174 152 177 138 173 129 150 205 295 393 286 411 405 385 373 361 349 341 352 355 389 405 380 380 378 356 192 295 326 305 290 270 304 231 274 300 115 154
166 173 176 192 183 182 165 151 165 156 182 119 162 154 271 290 346 424 416 396 377 365 356 345 340 340 350 374 410 382 373 371 366 332 302 290 327 292 271 280 145 233 284 246 188
160 156 180 167 185 195 162 140 170 128 154 129 136 250 287 306 433 411 408 393 377 358 350 346 334 332 336 365 410 387 370 259 362 138 313 149 295 285 287 275 281 215 213 233 231
166 170 164 172 187 159 207 167 149 154 123 166 142 148 288 298 426 320 400 389 367 349 341 327 324 329 328 335 393 385 372 367 364 343 319 316 354 150 285 280 270 290 223 175 227
164 178 175 174 154 190 154 119 170 162 206 137 167 224 230 301 431 418 400 385 368 345 330 327 328 326 325 324 367 401 375 365 364 350 322 308 320 316 307 277 281 253 217 211 199
179 173 173 152 176 153 165 156 161 176 165 206 175 236 240 330 437 412 394 377 362 345 330 323 319 323 321 318 330 404 379 364 362 367 166 322 305 277 302 308 296 280 228 243 131
159 163 165 156 157 166 147 146 138 139 130 154 213 234 287 332 342 401 386 363 356 339 323 310 311 317 311 315 319 379 390 372 366 367 365 316 320 326 302 266 301 276 264 260 207
170 155 154 156 175 185 143 119 133 140 144 154 140 256 267 342 151 409 383 362 353 335 323 316 307 427 310 308 317 333 411 370 367 364 341 329 319 298 298 284 260 283 271 283 288
152 152 162 157 151 140 160 221 163 165 175 165 143 185 204 320 225 379 385 360 340 332 321 309 308 412 420 306 308 314 375 395 369 353 357 371 323 313 305 298 266 265 269 264 266
137 160 152 142 158 144 165 119 176 188 154 173 234 212 204 322 332 394 362 357 344 328 319 310 303 390 416 438 304 315 345 389 380 360 353 353 338 330 334 308 275 281 274 257 265
148 146 145 197 162 176 122 228 196 178 143 245 253 133 310 324 323 399 377 362 345 322 312 309 312 304 414 429 375 306 325 386 398 363 358 354 340 319 315 343 315 281 248 279 284
136 141 179 145 176 149 221 210 256 259 139 172 157 234 146 325 326 397 376 351 337 322 309 309 310 300 406 436 422 297 314 386 384 408 368 365 342 311 306 335 302 274 254 250 263
135 152 153 182 192 131 202 199 131 163 267 206 148 248 294 317 329 396 371 351 337 321 310 305 307 337 402 397 407 307 304 370 374 385 391 374 371 305 306 292 310 288 278 265 273
160 136 179 134 190 205 130 132 164 201 240 163 181 213 273 164 371 399 373 351 334 322 310 303 302 370 387 396 407 337 299 367 365 356 367 365 354 358 311 311 292 286 276 261 262
145 187 174 154 245 122 226 131 268 143 226 167 212 201 299 303 304 399 373 351 334 323 311 301 338 377 376 387 403 354 291 352 358 351 351 341 338 342 302 348 329 271 278 260 263
133 193 157 194 166 217 237 123 208 205 236 201 157 232 281 301 305 400 374 351 332 319 310 300 299 374 371 380 391 369 290 325 349 338 336 337 336 331 327 351 324 301 277 265 267
Wind_Speed
31 49 34 53 53 40 37 41 41 43 34 46 48 41 47 44 63 15 65 78 69 86 20 75 70 70 57 56 67 72 72 64 45 66 68 51 54 65 58 43 40 43 46 58 58
50 39 35 53 58 37 49 49 58 61 35 44 36 45 43 57 65 61 80 51 69 62 48 81 66 74 73 71 80 66 59 55 52 47 42 63 53 28 66 42 50 47 59 57 54
57 43 50 32 54 32 57 37 57 44 53 37 39 56 49 66 59 81 41 83 107 101 28 32 61 78 25 36 38 48 42 44 67 61 71 43 75 61 89 39 50 56 56 59 55
36 33 55 56 39 43 49 36 71 72 46 53 42 51 50 62 68 65 40 77 36 80 73 48 29 29 28 32 35 40 44 51 53 65 77 68 68 79 40 66 88 62 62 63 50
32 70 45 64 58 46 69 77 75 50 38 50 44 44 67 75 66 78 51 67 55 29 26 72 25 24 26 28 35 39 46 50 49 70 73 57 77 59 61 92 32 65 60 58 57
59 36 51 44 55 54 61 69 37 59 51 42 52 46 56 68 78 68 111 33 30 27 25 23 21 21 31 27 33 37 44 53 59 70 77 69 93 91 86 84 50 54 62 58 63
42 62 59 48 73 61 65 72 74 54 37 68 52 50 50 71 118 74 87 35 27 23 21 20 17 18 20 28 31 28 45 54 59 69 80 86 53 52 69 66 61 68 67 37 42
62 74 64 66 51 42 75 71 36 58 73 58 47 64 60 72 120 59 70 28 28 23 18 16 15 14 17 25 24 33 27 51 60 70 79 86 58 57 87 63 93 99 80 67 43
51 51 73 68 70 69 65 77 39 78 64 43 43 54 73 84 131 52 33 31 25 17 19 12 13 11 15 26 33 39 45 47 54 68 75 82 86 92 99 77 82 71 89 87 83
65 38 68 64 66 71 65 82 48 59 47 36 49 62 71 100 111 47 32 27 24 18 16 13 12 10 13 25 32 24 43 51 60 67 74 81 88 70 100 69 90 82 99 98 66
42 66 58 93 75 76 72 46 75 60 41 43 46 56 72 73 84 74 31 27 22 17 13 10 10 9 10 19 33 36 45 54 61 67 77 85 93 64 94 80 68 106 105 73 60
40 46 78 73 96 62 65 76 47 75 38 65 50 61 87 127 85 40 30 25 22 17 12 10 10 8 9 15 34 37 44 54 64 38 65 85 93 97 93 83 95 102 85 36 78
72 78 78 96 85 81 67 52 69 55 75 46 64 65 116 124 111 35 28 26 21 18 13 11 10 8 10 14 32 38 45 54 64 70 71 72 96 96 99 96 74 97 88 100 84
72 66 84 73 86 104 65 43 73 41 54 42 50 112 131 135 46 33 31 24 21 17 14 11 10 11 10 13 29 39 45 40 63 45 80 40 81 98 100 97 93 89 92 98 96
80 77 74 76 89 58 112 72 48 58 36 64 48 57 126 131 44 53 32 25 20 19 17 12 12 13 11 12 24 41 46 55 63 71 77 79 81 42 96 91 87 85 80 74 97
77 83 80 80 52 92 56 45 77 65 107 43 65 100 98 131 39 32 29 27 22 17 19 17 13 14 13 16 21 42 47 54 62 70 78 81 79 85 86 87 91 95 98 99 79
89 85 80 48 82 55 72 61 72 77 71 90 68 105 110 121 33 33 30 27 25 19 16 17 16 15 16 19 19 37 48 55 62 67 51 78 79 88 86 86 93 92 102 98 56
73 74 72 53 57 69 50 54 52 48 46 47 99 105 130 113 67 37 31 29 26 20 17 20 16 16 16 21 21 30 49 54 58 63 70 78 80 81 89 91 94 94 92 91 83
81 62 50 56 86 96 49 30 49 43 49 47 46 116 118 104 62 33 32 29 26 22 20 19 18 11 17 19 22 25 43 51 57 60 70 82 84 84 90 90 93 92 87 76 67
54 53 73 56 49 45 69 134 73 62 86 62 46 75 97 110 73 51 32 30 28 24 21 21 17 8 6 18 22 25 34 48 55 59 67 74 89 87 91 92 92 88 89 91 92
34 72 46 40 63 46 79 28 83 80 48 60 105 90 97 105 94 36 38 32 27 26 22 22 19 11 1 4 22 26 31 42 56 60 63 67 88 87 88 93 86 89 90 88 86
47 38 38 127 69 83 29 141 102 86 43 100 108 50 102 97 93 37 30 28 25 27 25 22 18 17 4 3 15 24 29 40 47 57 63 64 86 84 81 83 83 90 90 76 89
31 40 102 46 87 58 122 125 124 120 49 79 57 100 57 92 88 35 30 31 26 27 27 25 19 17 6 2 21 24 27 37 44 48 59 61 77 84 81 78 88 93 89 85 81
37 71 62 102 112 50 116 93 52 55 109 86 53 117 106 95 90 33 29 29 27 28 27 26 22 15 3 13 25 29 28 34 39 43 50 56 58 85 82 80 89 94 89 76 69
77 37 101 45 116 122 47 44 70 74 94 55 68 97 95 59 71 34 30 28 27 27 28 28 25 11 9 9 16 39 28 33 39 45 47 50 57 69 88 84 87 91 94 90 86
52 111 76 52 131 38 97 39 118 43 89 67 94 86 98 91 91 35 31 28 27 27 27 28 20 14 12 9 9 40 32 34 41 44 47 53 56 55 79 77 88 87 94 86 88
51 124 64 115 75 97 105 28 84 82 96 96 60 103 103 91 88 34 31 28 26 28 28 28 27 15 14 10 11 39 35 36 42 47 51 52 54 58 71 59 90 99 94 86 87
Wind_Direction
301 344 289 334 333 300 316 279 305 287 320 296 320 301 289 276 286 313 306 286 280 274 276 290 273 286 296 293 269 279 277 266 229 233 244 251 248 253 249 244 237 220 225 235 231
346 340 300 339 336 317 320 326 321 327 313 307 304 311 292 276 272 287 283 313 281 287 285 287 294 275 298 291 278 287 260 245 244 224 254 251 250 253 246 225 239 228 235 238 236
345 331 340 293 337 286 325 288 329 311 324 297 283 295 305 295 286 278 326 289 320 321 280 279 279 294 251 239 234 268 222 232 262 215 215 256 219 235 227 230 221 217 220 234 233
299 303 337 339 297 325 316 303 326 325 285 322 279 318 277 277 282 302 331 308 313 290 301 302 266 258 246 240 228 229 212 254 202 203 204 224 214 207 237 226 215 223 242 237 238
299 350 328 334 334 319 332 337 328 319 281 321 279 306 285 286 296 297 322 328 297 298 285 299 264 258 243 230 220 212 220 202 207 200 203 212 198 225 221 212 226 229 224 222 238
333 312 329 325 332 325 327 330 286 328 314 308 317 298 289 289 286 310 335 321 313 304 290 279 267 258 267 220 216 207 202 200 193 198 197 203 201 205 210 205 237 239 232 220 227
318 330 328 321 341 329 326 330 332 321 303 330 276 287 310 320 336 305 294 321 318 306 291 284 276 256 241 217 208 229 199 195 193 197 198 198 217 197 205 205 249 227 226 238 248
329 341 330 327 321 308 327 330 308 329 331 329 289 296 300 315 340 319 307 330 320 311 300 282 281 259 240 213 229 274 257 197 193 196 197 192 195 242 202 215 200 208 216 222 233
321 326 337 328 325 327 329 329 294 331 327 282 312 301 292 331 343 314 339 334 327 312 311 291 278 265 236 210 203 196 196 202 197 195 194 193 192 199 204 200 203 222 212 214 215
324 310 324 326 326 332 328 328 321 327 287 293 311 301 294 343 338 336 341 335 332 327 314 308 282 270 235 211 201 243 192 192 190 192 189 191 188 194 204 210 203 203 209 209 225
311 324 323 339 325 328 329 321 330 326 284 294 303 315 327 316 345 340 340 338 336 330 316 299 295 274 241 213 200 197 190 191 189 188 188 193 186 208 203 198 219 205 208 218 232
311 318 332 326 339 327 329 331 320 333 302 332 303 321 335 349 345 331 342 341 337 329 319 302 291 262 242 215 199 194 191 190 189 201 191 191 190 196 202 186 205 204 202 235 212
323 329 328 339 333 332 330 322 328 322 332 295 331 327 342 349 348 343 341 344 339 328 320 301 276 257 243 214 198 194 189 190 188 190 196 193 190 195 203 195 215 209 202 210 213
317 323 330 324 332 337 329 314 331 307 322 314 309 342 348 350 349 344 344 343 338 331 324 303 275 256 237 224 196 192 189 198 190 212 197 208 193 198 199 202 200 211 215 212 212
317 320 320 323 331 328 336 330 319 322 310 329 322 319 347 350 351 338 345 345 341 334 327 311 284 259 230 231 193 191 192 191 191 188 195 198 192 215 202 202 201 202 213 219 214
317 325 321 323 325 331 327 327 330 326 335 318 336 337 341 350 351 350 349 342 347 333 322 317 290 262 236 223 200 195 192 194 193 189 195 201 197 195 200 200 201 208 212 216 219
324 323 321 326 325 327 330 330 331 328 329 333 340 340 338 349 354 350 351 343 344 344 328 314 302 269 241 226 218 197 194 196 195 189 214 195 198 201 201 198 197 203 214 213 226
315 319 321 328 330 330 322 321 319 319 311 342 339 340 346 349 348 350 350 342 341 340 329 318 304 280 252 233 219 201 196 197 197 192 193 198 192 194 199 200 197 203 206 212 217
313 321 323 328 326 331 318 306 320 331 339 342 318 340 346 350 326 348 346 341 337 337 326 319 306 355 260 241 223 210 201 199 196 193 194 194 196 199 198 201 204 198 204 207 207
323 318 319 329 329 314 325 337 333 330 330 335 322 333 341 347 339 346 344 338 335 332 326 317 309 358 356 241 228 215 198 202 197 196 196 194 198 201 199 202 204 203 202 208 212
308 315 324 317 332 317 323 308 333 327 336 330 340 340 338 346 347 342 338 335 334 329 327 316 308 338 357 212 228 215 207 201 201 198 199 194 195 199 200 202 200 196 204 212 213
322 326 325 326 323 326 300 331 330 330 344 339 345 324 345 347 345 337 336 329 331 326 327 320 316 299 324 273 225 218 210 199 202 201 199 196 194 199 200 200 198 199 212 208 209
304 318 323 326 321 321 325 330 326 329 333 329 322 330 329 348 345 334 335 327 327 323 324 322 317 300 327 76 185 217 209 201 201 200 200 195 196 199 202 194 194 199 210 214 213
301 311 316 321 323 305 329 322 312 327 337 334 342 341 340 346 345 335 332 323 322 320 319 318 316 299 263 178 189 210 206 199 199 196 197 195 198 200 204 199 194 195 195 201 200
311 307 318 300 322 325 305 317 320 330 333 332 326 343 339 333 343 335 331 323 320 317 316 316 315 269 254 215 197 201 206 193 193 193 193 185 192 198 202 204 198 199 198 207 208
317 314 321 321 319 296 320 323 328 333 338 330 341 328 341 345 343 333 327 321 319 316 314 315 305 249 249 227 219 198 204 192 189 191 184 190 192 190 201 204 199 205 201 207 207
294 316 319 323 327 317 323 309 326 327 336 326 324 326 338 342 342 333 329 323 319 315 312 312 312 236 241 228 220 195 203 195 189 190 188 188 192 195 199 204 200 197 204 207 205